This demonstration page uses our WeatherBlox Daily Observations layout. Learn more.

Left ArrowRight Arrow

34.16533, -84.80231

Hourly Observations for April 3, 2020

Temp ( °F °C ) Dew Point ( °F °C ) Humidity (%) Winds ( mph kmh ) Pressure ( in mb ) Visibility ( mi km ) Precip ( " mm )
12:53 am 00:53 Clear 46 7.8 40 4.4 79 79 Calm 30.03 1017 10 16 0.00 0.00
1:53 am 01:53 Clear 45 7.2 39 3.9 80 80 Calm 30.01 1016 10 16 0.00 0.00
2:53 am 02:53 Clear 45 7.2 40 4.4 83 83 Calm 30.01 1016 10 16 0.00 0.00
3:53 am 03:53 Clear 44 6.7 39 3.9 83 83 Calm 30.01 1016 10 16 0.00 0.00
4:53 am 04:53 Clear 42 5.6 38 3.3 85 85 Calm 30.01 1016 10 16 0.00 0.00
5:53 am 05:53 Clear 40 4.4 37 2.8 89 89 Calm 30.02 1017 10 16 0.00 0.00
6:53 am 06:53 Clear 39 3.9 36 2.2 89 89 Calm 30.03 1017 10 16 0.00 0.00
7:53 am 07:53 Sunny 41 5 38 3.3 89 89 Calm 30.05 1018 10 16 0.00 0.00
8:53 am 08:53 Sunny 50 10 42 5.6 74 74 Calm 30.06 1018 10 16 0.00 0.00
9:53 am 09:53 Sunny 55 12.8 40 4.4 57 57 NNE 5 7 30.06 1018 10 16 0.00 0.00
10:53 am 10:53 Sunny 58 14.4 43 6.1 58 58 VRB 3 6 30.06 1018 10 16 0.00 0.00
11:53 am 11:53 Sunny 64 17.8 45 7.2 50 50 VRB 6 9 30.04 1017 10 16 0.00 0.00
12:53 pm 12:53 Sunny 71 21.7 36 2.2 28 28 VRB 3 6 30.03 1017 10 16 0.00 0.00
1:53 pm 13:53 Sunny 73 22.8 39 3.9 29 29 VRB 5 7 30.00 1016 10 16 0.00 0.00
2:53 pm 14:53 Sunny 75 23.9 42 5.6 31 31 VRB 3 6 29.98 1015 10 16 0.00 0.00
3:53 pm 15:53 Sunny 77 25 36 2.2 23 23 VRB 5 7 29.95 1014 10 16 0.00 0.00
4:53 pm 16:53 Sunny 78 25.6 34 1.1 20 20 Calm 29.94 1014 10 16 0.00 0.00
5:53 pm 17:53 Sunny 78 25.6 36 2.2 22 22 NW 3 6 29.93 1014 10 16 0.00 0.00
6:53 pm 18:53 Sunny 75 23.9 33 0.6 22 22 Calm 29.93 1014 10 16 0.00 0.00
7:53 pm 19:53 Sunny 67 19.4 40 4.4 37 37 Calm 29.93 1014 10 16 0.00 0.00
8:53 pm 20:53 Clear 61 16.1 42 5.6 50 50 Calm 29.94 1014 10 16 0.00 0.00
9:53 pm 21:53 Clear 55 12.8 43 6.1 64 64 SE 3 6 29.95 1014 10 16 0.00 0.00
10:53 pm 22:53 Clear 53 11.7 43 6.1 69 69 Calm 29.96 1014 10 16 0.00 0.00
11:53 pm 23:53 Clear 53 11.7 43 6.1 69 69 Calm 29.96 1015 10 16 0.00 0.00

Powered by AerisWeather